Location: Taupo
(38.6830°S, 176.0830°E)
Time: 03:12:14
(UTC+13:00)

Cosmos 1939 Rocket - Pass Details

Date: 24 January 2019
Orbit: 532 x 586 km, 97.4° (Epoch: 21 February)

Event Time Altitude Azimuth Distance (km) Brightness Sun altitude
Rises 21:27:58 0° 169° (S) 2,846 6.8 -9.4°
Reaches altitude 10° 21:30:09 10° 169° (S) 1,941 5.9 -9.8°
Maximum altitude 21:34:23 86° 255° (WSW) 602 3.0 -10.4°
Drops below altitude 10° 21:38:33 10° 345° (NNW) 1,912 5.4 -11.1°
Sets 21:40:41 0° 346° (NNW) 2,801 6.2 -11.4°
